Year,Month,Day,Hour,Minute,Value (Times are PST for insolation in W/m^2)
2018,11,04,00,00,0.00
2018,11,04,00,01,0.00
2018,11,04,00,02,0.00
2018,11,04,00,03,0.00
2018,11,04,00,04,0.00
2018,11,04,00,05,0.00
2018,11,04,00,06,0.00
2018,11,04,00,07,0.00
2018,11,04,00,08,0.00
2018,11,04,00,09,0.00
2018,11,04,00,10,0.00
2018,11,04,00,11,0.00
2018,11,04,00,12,0.00
2018,11,04,00,13,0.00
2018,11,04,00,14,0.00
2018,11,04,00,15,0.00
2018,11,04,00,16,0.00
2018,11,04,00,17,0.00
2018,11,04,00,18,0.00
2018,11,04,00,19,0.00
2018,11,04,00,20,0.00
2018,11,04,00,21,0.00
2018,11,04,00,22,0.00
2018,11,04,00,23,0.00
2018,11,04,00,24,0.00
2018,11,04,00,25,0.00
2018,11,04,00,26,0.00
2018,11,04,00,27,0.00
2018,11,04,00,28,0.00
2018,11,04,00,29,0.00
2018,11,04,00,30,0.00
2018,11,04,00,31,0.00
2018,11,04,00,32,0.00
2018,11,04,00,33,0.00
2018,11,04,00,34,0.00
2018,11,04,00,35,0.00
2018,11,04,00,36,0.00
2018,11,04,00,37,0.00
2018,11,04,00,38,0.00
2018,11,04,00,39,0.00
2018,11,04,00,40,0.00
2018,11,04,00,41,0.00
2018,11,04,00,42,0.00
2018,11,04,00,43,0.00
2018,11,04,00,44,0.00
2018,11,04,00,45,0.00
2018,11,04,00,46,0.00
2018,11,04,00,47,0.00
2018,11,04,00,48,0.00
2018,11,04,00,49,0.00
2018,11,04,00,50,0.00
2018,11,04,00,51,0.00
2018,11,04,00,52,0.00
2018,11,04,00,53,0.00
2018,11,04,00,54,0.00
2018,11,04,00,55,0.00
2018,11,04,00,56,0.00
2018,11,04,00,57,0.00
2018,11,04,00,58,0.00
2018,11,04,00,59,0.00
2018,11,04,01,00,0.00
2018,11,04,01,01,0.00
2018,11,04,01,02,0.00
2018,11,04,01,03,0.00
2018,11,04,01,04,0.00
2018,11,04,01,05,0.00
2018,11,04,01,06,0.00
2018,11,04,01,07,0.00
2018,11,04,01,08,0.00
2018,11,04,01,09,0.00
2018,11,04,01,10,0.00
2018,11,04,01,11,0.00
2018,11,04,01,12,0.00
2018,11,04,01,13,0.00
2018,11,04,01,14,0.00
2018,11,04,01,15,0.00
2018,11,04,01,16,0.00
2018,11,04,01,17,0.00
2018,11,04,01,18,0.00
2018,11,04,01,19,0.00
2018,11,04,01,20,0.00
2018,11,04,01,21,0.00
2018,11,04,01,22,0.00
2018,11,04,01,23,0.00
2018,11,04,01,24,0.00
2018,11,04,01,25,0.00
2018,11,04,01,26,0.00
2018,11,04,01,27,0.00
2018,11,04,01,28,0.00
2018,11,04,01,29,0.00
2018,11,04,01,30,0.00
2018,11,04,01,31,0.00
2018,11,04,01,32,0.00
2018,11,04,01,33,0.00
2018,11,04,01,34,0.00
2018,11,04,01,35,0.00
2018,11,04,01,36,0.00
2018,11,04,01,37,0.00
2018,11,04,01,38,0.00
2018,11,04,01,39,0.00
2018,11,04,01,40,0.00
2018,11,04,01,41,0.00
2018,11,04,01,42,0.00
2018,11,04,01,43,0.00
2018,11,04,01,44,0.00
2018,11,04,01,45,0.00
2018,11,04,01,46,0.00
2018,11,04,01,47,0.00
2018,11,04,01,48,0.00
2018,11,04,01,49,0.00
2018,11,04,01,50,0.00
2018,11,04,01,51,0.00
2018,11,04,01,52,0.00
2018,11,04,01,53,0.00
2018,11,04,01,54,0.00
2018,11,04,01,55,0.00
2018,11,04,01,56,0.00
2018,11,04,01,57,0.00
2018,11,04,01,58,0.00
2018,11,04,01,59,0.00
2018,11,04,02,02,0.00
2018,11,04,02,03,0.00
2018,11,04,02,04,0.00
2018,11,04,02,05,0.00
2018,11,04,02,06,0.00
2018,11,04,02,07,0.00
2018,11,04,02,08,0.00
2018,11,04,02,09,0.00
2018,11,04,02,10,0.00
2018,11,04,02,11,0.00
2018,11,04,02,12,0.00
2018,11,04,02,13,0.00
2018,11,04,02,14,0.00
2018,11,04,02,15,0.00
2018,11,04,02,16,0.00
2018,11,04,02,17,0.00
2018,11,04,02,18,0.00
2018,11,04,02,19,0.00
2018,11,04,02,20,0.00
2018,11,04,02,21,0.00
2018,11,04,02,22,0.00
2018,11,04,02,23,0.00
2018,11,04,02,24,0.00
2018,11,04,02,25,0.00
2018,11,04,02,26,0.00
2018,11,04,02,27,0.00
2018,11,04,02,28,0.00
2018,11,04,02,29,0.00
2018,11,04,02,30,0.00
2018,11,04,02,31,0.00
2018,11,04,02,32,0.00
2018,11,04,02,33,0.00
2018,11,04,02,34,0.00
2018,11,04,02,35,0.00
2018,11,04,02,36,0.00
2018,11,04,02,37,0.00
2018,11,04,02,38,0.00
2018,11,04,02,39,0.00
2018,11,04,02,40,0.00
2018,11,04,02,41,0.00
2018,11,04,02,42,0.00
2018,11,04,02,43,0.00
2018,11,04,02,44,0.00
2018,11,04,02,45,0.00
2018,11,04,02,46,0.00
2018,11,04,02,47,0.00
2018,11,04,02,48,0.00
2018,11,04,02,49,0.00
2018,11,04,02,50,0.00
2018,11,04,02,51,0.00
2018,11,04,02,52,0.00
2018,11,04,02,53,0.00
2018,11,04,02,54,0.00
2018,11,04,02,55,0.00
2018,11,04,02,56,0.00
2018,11,04,02,57,0.00
2018,11,04,02,58,0.00
2018,11,04,02,59,0.00
2018,11,04,03,00,0.00
2018,11,04,03,01,0.00
2018,11,04,03,02,0.00
2018,11,04,03,03,0.00
2018,11,04,03,04,0.00
2018,11,04,03,05,0.00
2018,11,04,03,06,0.00
2018,11,04,03,07,0.00
2018,11,04,03,08,0.00
2018,11,04,03,09,0.00
2018,11,04,03,10,0.00
2018,11,04,03,11,0.00
2018,11,04,03,12,0.00
2018,11,04,03,13,0.00
2018,11,04,03,14,0.00
2018,11,04,03,15,0.00
2018,11,04,03,16,0.00
2018,11,04,03,17,0.00
2018,11,04,03,18,0.00
2018,11,04,03,19,0.00
2018,11,04,03,20,0.00
2018,11,04,03,21,0.00
2018,11,04,03,22,0.00
2018,11,04,03,23,0.00
2018,11,04,03,24,0.00
2018,11,04,03,25,0.00
2018,11,04,03,26,0.00
2018,11,04,03,27,0.00
2018,11,04,03,28,0.00
2018,11,04,03,29,0.00
2018,11,04,03,30,0.00
2018,11,04,03,31,0.00
2018,11,04,03,32,0.00
2018,11,04,03,33,0.00
2018,11,04,03,34,0.00
2018,11,04,03,35,0.00
2018,11,04,03,36,0.00
2018,11,04,03,37,0.00
2018,11,04,03,38,0.00
2018,11,04,03,39,0.00
2018,11,04,03,40,0.00
2018,11,04,03,41,0.00
2018,11,04,03,42,0.00
2018,11,04,03,43,0.00
2018,11,04,03,44,0.00
2018,11,04,03,45,0.00
2018,11,04,03,46,0.00
2018,11,04,03,47,0.00
2018,11,04,03,48,0.00
2018,11,04,03,49,0.00
2018,11,04,03,50,0.00
2018,11,04,03,51,0.00
2018,11,04,03,52,0.00
2018,11,04,03,53,0.00
2018,11,04,03,54,0.00
2018,11,04,03,55,0.00
2018,11,04,03,56,0.00
2018,11,04,03,57,0.00
2018,11,04,03,58,0.00
2018,11,04,03,59,0.00
2018,11,04,04,00,0.00
2018,11,04,04,01,0.00
2018,11,04,04,02,0.00
2018,11,04,04,03,0.00
2018,11,04,04,04,0.00
2018,11,04,04,05,0.00
2018,11,04,04,06,0.00
2018,11,04,04,07,0.00
2018,11,04,04,08,0.00
2018,11,04,04,09,0.00
2018,11,04,04,10,0.00
2018,11,04,04,11,0.00
2018,11,04,04,12,0.00
2018,11,04,04,13,0.00
2018,11,04,04,14,0.00
2018,11,04,04,15,0.00
2018,11,04,04,16,0.00
2018,11,04,04,17,0.00
2018,11,04,04,18,0.00
2018,11,04,04,19,0.00
2018,11,04,04,20,0.00
2018,11,04,04,21,0.00
2018,11,04,04,22,0.00
2018,11,04,04,23,0.00
2018,11,04,04,24,0.00
2018,11,04,04,25,0.00
2018,11,04,04,26,0.00
2018,11,04,04,27,0.00
2018,11,04,04,28,0.00
2018,11,04,04,29,0.00
2018,11,04,04,30,0.00
2018,11,04,04,31,0.00
2018,11,04,04,32,0.00
2018,11,04,04,33,0.00
2018,11,04,04,34,0.00
2018,11,04,04,35,0.00
2018,11,04,04,36,0.00
2018,11,04,04,37,0.00
2018,11,04,04,38,0.00
2018,11,04,04,39,0.00
2018,11,04,04,40,0.00
2018,11,04,04,41,0.00
2018,11,04,04,42,0.00
2018,11,04,04,43,0.00
2018,11,04,04,44,0.00
2018,11,04,04,45,0.00
2018,11,04,04,46,0.00
2018,11,04,04,47,0.00
2018,11,04,04,48,0.00
2018,11,04,04,49,0.00
2018,11,04,04,50,0.00
2018,11,04,04,51,0.00
2018,11,04,04,52,0.00
2018,11,04,04,53,0.00
2018,11,04,04,54,0.00
2018,11,04,04,55,0.00
2018,11,04,04,56,0.00
2018,11,04,04,57,0.00
2018,11,04,04,58,0.00
2018,11,04,04,59,0.00
2018,11,04,05,00,0.00
2018,11,04,05,01,0.00
2018,11,04,05,02,0.00
2018,11,04,05,03,0.00
2018,11,04,05,04,0.00
2018,11,04,05,05,0.00
2018,11,04,05,06,0.00
2018,11,04,05,07,0.00
2018,11,04,05,08,0.00
2018,11,04,05,09,0.00
2018,11,04,05,10,0.00
2018,11,04,05,11,0.00
2018,11,04,05,12,0.00
2018,11,04,05,13,0.00
2018,11,04,05,14,0.00
2018,11,04,05,15,0.00
2018,11,04,05,16,0.00
2018,11,04,05,17,0.00
2018,11,04,05,18,0.00
2018,11,04,05,19,0.00
2018,11,04,05,20,0.00
2018,11,04,05,21,0.00
2018,11,04,05,22,0.00
2018,11,04,05,23,0.00
2018,11,04,05,24,0.00
2018,11,04,05,25,0.00
2018,11,04,05,26,0.00
2018,11,04,05,27,0.00
2018,11,04,05,28,0.00
2018,11,04,05,29,0.00
2018,11,04,05,30,0.00
2018,11,04,05,31,0.00
2018,11,04,05,32,0.00
2018,11,04,05,33,0.00
2018,11,04,05,34,0.00
2018,11,04,05,35,0.00
2018,11,04,05,36,0.00
2018,11,04,05,37,0.00
2018,11,04,05,38,0.00
2018,11,04,05,39,0.00
2018,11,04,05,40,0.00
2018,11,04,05,41,0.00
2018,11,04,05,42,0.00
2018,11,04,05,43,0.00
2018,11,04,05,44,0.00
2018,11,04,05,45,0.00
2018,11,04,05,46,0.00
2018,11,04,05,47,0.00
2018,11,04,05,48,0.00
2018,11,04,05,49,0.00
2018,11,04,05,50,0.00
2018,11,04,05,51,0.00
2018,11,04,05,52,0.00
2018,11,04,05,53,0.00
2018,11,04,05,54,0.00
2018,11,04,05,55,0.00
2018,11,04,05,56,0.00
2018,11,04,05,57,0.00
2018,11,04,05,58,0.00
2018,11,04,05,59,0.00
2018,11,04,06,00,0.00
2018,11,04,06,01,0.00
2018,11,04,06,02,0.00
2018,11,04,06,03,0.00
2018,11,04,06,04,0.00
2018,11,04,06,05,0.00
2018,11,04,06,06,0.00
2018,11,04,06,07,0.00
2018,11,04,06,08,0.00
2018,11,04,06,09,0.00
2018,11,04,06,10,0.00
2018,11,04,06,11,0.00
2018,11,04,06,12,0.00
2018,11,04,06,13,0.00
2018,11,04,06,14,0.00
2018,11,04,06,15,0.00
2018,11,04,06,16,0.00
2018,11,04,06,17,0.00
2018,11,04,06,18,0.00
2018,11,04,06,19,0.00
2018,11,04,06,20,0.00
2018,11,04,06,21,0.00
2018,11,04,06,22,0.00
2018,11,04,06,23,0.00
2018,11,04,06,24,0.00
2018,11,04,06,25,0.00
2018,11,04,06,26,0.00
2018,11,04,06,27,0.00
2018,11,04,06,28,0.00
2018,11,04,06,29,0.00
2018,11,04,06,30,0.00
2018,11,04,06,31,0.00
2018,11,04,06,32,0.00
2018,11,04,06,33,0.00
2018,11,04,06,34,0.00
2018,11,04,06,35,0.00
2018,11,04,06,36,0.00
2018,11,04,06,37,0.00
2018,11,04,06,38,0.00
2018,11,04,06,39,0.00
2018,11,04,06,40,0.00
2018,11,04,06,41,0.00
2018,11,04,06,42,0.00
2018,11,04,06,43,0.00
2018,11,04,06,44,0.00
2018,11,04,06,45,0.00
2018,11,04,06,46,0.00
2018,11,04,06,47,0.00
2018,11,04,06,48,0.00
2018,11,04,06,49,0.00
2018,11,04,06,50,0.00
2018,11,04,06,51,0.00
2018,11,04,06,52,0.00
2018,11,04,06,53,0.00
2018,11,04,06,54,0.00
2018,11,04,06,55,0.00
2018,11,04,06,56,0.00
2018,11,04,06,57,0.00
2018,11,04,06,58,0.00
2018,11,04,06,59,0.00
2018,11,04,07,00,0.00
2018,11,04,07,01,0.00
2018,11,04,07,02,0.00
2018,11,04,07,03,0.00
2018,11,04,07,04,0.00
2018,11,04,07,05,0.00
2018,11,04,07,06,0.00
2018,11,04,07,07,0.00
2018,11,04,07,08,0.00
2018,11,04,07,09,0.00
2018,11,04,07,10,0.20
2018,11,04,07,11,5.00
2018,11,04,07,12,5.00
2018,11,04,07,13,5.00
2018,11,04,07,14,6.20
2018,11,04,07,15,7.00
2018,11,04,07,16,8.90
2018,11,04,07,17,9.00
2018,11,04,07,18,9.00
2018,11,04,07,19,10.00
2018,11,04,07,20,11.00
2018,11,04,07,21,11.80
2018,11,04,07,22,12.30
2018,11,04,07,23,16.50
2018,11,04,07,24,18.00
2018,11,04,07,25,18.50
2018,11,04,07,26,19.00
2018,11,04,07,27,18.20
2018,11,04,07,28,18.00
2018,11,04,07,29,18.00
2018,11,04,07,30,18.00
2018,11,04,07,31,18.00
2018,11,04,07,32,18.70
2018,11,04,07,33,19.00
2018,11,04,07,34,19.20
2018,11,04,07,35,21.00
2018,11,04,07,36,21.00
2018,11,04,07,37,22.10
2018,11,04,07,38,23.00
2018,11,04,07,39,23.00
2018,11,04,07,40,23.30
2018,11,04,07,41,25.00
2018,11,04,07,42,25.50
2018,11,04,07,43,27.10
2018,11,04,07,44,28.00
2018,11,04,07,45,29.80
2018,11,04,07,46,30.00
2018,11,04,07,47,30.60
2018,11,04,07,48,31.20
2018,11,04,07,49,30.00
2018,11,04,07,50,30.00
2018,11,04,07,51,30.10
2018,11,04,07,52,33.00
2018,11,04,07,53,33.00
2018,11,04,07,54,33.00
2018,11,04,07,55,32.40
2018,11,04,07,56,47.80
2018,11,04,07,57,64.00
2018,11,04,07,58,66.50
2018,11,04,07,59,62.60
2018,11,04,08,00,39.50
2018,11,04,08,01,32.00
2018,11,04,08,02,45.30
2018,11,04,08,03,62.40
2018,11,04,08,04,75.50
2018,11,04,08,05,88.90
2018,11,04,08,06,88.90
2018,11,04,08,07,90.30
2018,11,04,08,08,96.70
2018,11,04,08,09,102.10
2018,11,04,08,10,104.00
2018,11,04,08,11,105.80
2018,11,04,08,12,105.30
2018,11,04,08,13,105.50
2018,11,04,08,14,112.00
2018,11,04,08,15,110.40
2018,11,04,08,16,108.10
2018,11,04,08,17,118.20
2018,11,04,08,18,122.10
2018,11,04,08,19,124.40
2018,11,04,08,20,125.00
2018,11,04,08,21,132.00
2018,11,04,08,22,132.00
2018,11,04,08,23,134.10
2018,11,04,08,24,139.20
2018,11,04,08,25,141.70
2018,11,04,08,26,145.60
2018,11,04,08,27,149.70
2018,11,04,08,28,153.60
2018,11,04,08,29,155.50
2018,11,04,08,30,158.40
2018,11,04,08,31,162.20
2018,11,04,08,32,164.80
2018,11,04,08,33,167.00
2018,11,04,08,34,168.70
2018,11,04,08,35,172.90
2018,11,04,08,36,176.50
2018,11,04,08,37,180.30
2018,11,04,08,38,185.80
2018,11,04,08,39,190.60
2018,11,04,08,40,193.00
2018,11,04,08,41,194.00
2018,11,04,08,42,195.00
2018,11,04,08,43,187.40
2018,11,04,08,44,186.80
2018,11,04,08,45,201.10
2018,11,04,08,46,207.00
2018,11,04,08,47,209.10
2018,11,04,08,48,213.00
2018,11,04,08,49,215.60
2018,11,04,08,50,216.00
2018,11,04,08,51,218.20
2018,11,04,08,52,225.70
2018,11,04,08,53,228.10
2018,11,04,08,54,229.00
2018,11,04,08,55,233.10
2018,11,04,08,56,234.40
2018,11,04,08,57,237.60
2018,11,04,08,58,239.90
2018,11,04,08,59,242.70
2018,11,04,09,00,244.00
2018,11,04,09,01,247.40
2018,11,04,09,02,250.10
2018,11,04,09,03,251.60
2018,11,04,09,04,253.80
2018,11,04,09,05,256.70
2018,11,04,09,06,259.40
2018,11,04,09,07,261.80
2018,11,04,09,08,265.30
2018,11,04,09,09,267.60
2018,11,04,09,10,270.10
2018,11,04,09,11,272.80
2018,11,04,09,12,274.00
2018,11,04,09,13,275.90
2018,11,04,09,14,278.20
2018,11,04,09,15,280.20
2018,11,04,09,16,283.90
2018,11,04,09,17,285.00
2018,11,04,09,18,287.40
2018,11,04,09,19,288.20
2018,11,04,09,20,290.80
2018,11,04,09,21,294.30
2018,11,04,09,22,296.00
2018,11,04,09,23,298.20
2018,11,04,09,24,300.70
2018,11,04,09,25,302.30
2018,11,04,09,26,307.00
2018,11,04,09,27,311.70
2018,11,04,09,28,315.30
2018,11,04,09,29,320.80
2018,11,04,09,30,324.60
2018,11,04,09,31,329.40
2018,11,04,09,32,337.30
2018,11,04,09,33,343.10
2018,11,04,09,34,345.50
2018,11,04,09,35,341.00
2018,11,04,09,36,338.20
2018,11,04,09,37,337.80
2018,11,04,09,38,335.50
2018,11,04,09,39,334.00
2018,11,04,09,40,334.00
2018,11,04,09,41,334.00
2018,11,04,09,42,337.40
2018,11,04,09,43,338.90
2018,11,04,09,44,338.80
2018,11,04,09,45,341.00
2018,11,04,09,46,341.00
2018,11,04,09,47,342.40
2018,11,04,09,48,344.70
2018,11,04,09,49,346.70
2018,11,04,09,50,350.00
2018,11,04,09,51,350.80
2018,11,04,09,52,352.00
2018,11,04,09,53,352.80
2018,11,04,09,54,355.00
2018,11,04,09,55,359.20
2018,11,04,09,56,361.50
2018,11,04,09,57,359.00
2018,11,04,09,58,322.40
2018,11,04,09,59,304.00
2018,11,04,10,00,142.40
2018,11,04,10,01,160.70
2018,11,04,10,02,345.60
2018,11,04,10,03,377.00
2018,11,04,10,04,373.70
2018,11,04,10,05,374.00
2018,11,04,10,06,378.10
2018,11,04,10,07,380.00
2018,11,04,10,08,380.30
2018,11,04,10,09,382.00
2018,11,04,10,10,384.30
2018,11,04,10,11,386.60
2018,11,04,10,12,389.60
2018,11,04,10,13,388.00
2018,11,04,10,14,388.00
2018,11,04,10,15,389.20
2018,11,04,10,16,394.40
2018,11,04,10,17,396.00
2018,11,04,10,18,397.20
2018,11,04,10,19,399.50
2018,11,04,10,20,401.00
2018,11,04,10,21,402.10
2018,11,04,10,22,403.00
2018,11,04,10,23,403.80
2018,11,04,10,24,406.00
2018,11,04,10,25,406.00
2018,11,04,10,26,406.00
2018,11,04,10,27,408.40
2018,11,04,10,28,410.00
2018,11,04,10,29,410.10
2018,11,04,10,30,412.70
2018,11,04,10,31,412.20
2018,11,04,10,32,414.20
2018,11,04,10,33,414.20
2018,11,04,10,34,416.50
2018,11,04,10,35,418.00
2018,11,04,10,36,420.00
2018,11,04,10,37,420.60
2018,11,04,10,38,423.50
2018,11,04,10,39,427.40
2018,11,04,10,40,431.20
2018,11,04,10,41,437.90
2018,11,04,10,42,450.40
2018,11,04,10,43,460.00
2018,11,04,10,44,463.00
2018,11,04,10,45,466.70
2018,11,04,10,46,475.60
2018,11,04,10,47,502.10
2018,11,04,10,48,531.70
2018,11,04,10,49,558.00
2018,11,04,10,50,557.00
2018,11,04,10,51,545.00
2018,11,04,10,52,245.00
2018,11,04,10,53,219.60
2018,11,04,10,54,471.40
2018,11,04,10,55,501.00
2018,11,04,10,56,501.00
2018,11,04,10,57,501.00
2018,11,04,10,58,501.00
2018,11,04,10,59,392.00
2018,11,04,11,00,392.00
2018,11,04,11,01,392.00
2018,11,04,11,02,392.00
2018,11,04,11,03,392.00
2018,11,04,11,04,216.00
2018,11,04,11,05,260.50
2018,11,04,11,06,591.70
2018,11,04,11,07,561.00
2018,11,04,11,08,355.40
2018,11,04,11,09,232.00
2018,11,04,11,10,232.00
2018,11,04,11,11,232.00
2018,11,04,11,12,232.00
2018,11,04,11,13,232.00
2018,11,04,11,14,450.50
2018,11,04,11,15,586.60
2018,11,04,11,16,584.10
2018,11,04,11,17,578.70
2018,11,04,11,18,547.30
2018,11,04,11,19,535.70
2018,11,04,11,20,534.80
2018,11,04,11,21,541.50
2018,11,04,11,22,552.40
2018,11,04,11,23,568.00
2018,11,04,11,24,578.00
2018,11,04,11,25,578.00
2018,11,04,11,26,593.30
2018,11,04,11,27,606.80
2018,11,04,11,28,607.20
2018,11,04,11,29,599.80
2018,11,04,11,30,596.50
2018,11,04,11,31,585.00
2018,11,04,11,32,585.00
2018,11,04,11,33,623.00
2018,11,04,11,34,631.00
2018,11,04,11,35,612.50
2018,11,04,11,36,582.00
2018,11,04,11,37,614.30
2018,11,04,11,38,610.60
2018,11,04,11,39,617.60
2018,11,04,11,40,619.00
2018,11,04,11,41,622.00
2018,11,04,11,42,631.00
2018,11,04,11,43,631.00
2018,11,04,11,44,612.30
2018,11,04,11,45,630.60
2018,11,04,11,46,578.80
2018,11,04,11,47,223.00
2018,11,04,11,48,223.00
2018,11,04,11,49,466.60
2018,11,04,11,50,629.00
2018,11,04,11,51,629.00
2018,11,04,11,52,576.80
2018,11,04,11,53,219.90
2018,11,04,11,54,193.30
2018,11,04,11,55,176.10
2018,11,04,11,56,158.80
2018,11,04,11,57,155.80
2018,11,04,11,58,183.80
2018,11,04,11,59,204.70
2018,11,04,12,00,167.00
2018,11,04,12,01,160.00
2018,11,04,12,02,147.50
2018,11,04,12,03,139.30
2018,11,04,12,04,145.50
2018,11,04,12,05,164.00
2018,11,04,12,06,152.00
2018,11,04,12,07,175.00
2018,11,04,12,08,198.80
2018,11,04,12,09,221.50
2018,11,04,12,10,244.20
2018,11,04,12,11,275.40
2018,11,04,12,12,248.50
2018,11,04,12,13,208.20
2018,11,04,12,14,215.60
2018,11,04,12,15,219.10
2018,11,04,12,16,213.50
2018,11,04,12,17,168.80
2018,11,04,12,18,170.10
2018,11,04,12,19,158.50
2018,11,04,12,20,159.30
2018,11,04,12,21,157.00
2018,11,04,12,22,133.00
2018,11,04,12,23,118.90
2018,11,04,12,24,116.00
2018,11,04,12,25,117.40
2018,11,04,12,26,122.20
2018,11,04,12,27,133.20
2018,11,04,12,28,139.00
2018,11,04,12,29,135.20
2018,11,04,12,30,172.30
2018,11,04,12,31,158.90
2018,11,04,12,32,110.10
2018,11,04,12,33,104.80
2018,11,04,12,34,112.10
2018,11,04,12,35,119.10
2018,11,04,12,36,118.00
2018,11,04,12,37,168.20
2018,11,04,12,38,210.10
2018,11,04,12,39,179.30
2018,11,04,12,40,149.70
2018,11,04,12,41,142.70
2018,11,04,12,42,156.60
2018,11,04,12,43,219.40
2018,11,04,12,44,187.40
2018,11,04,12,45,183.00
2018,11,04,12,46,183.00
2018,11,04,12,47,183.00
2018,11,04,12,48,183.00
2018,11,04,12,49,204.60
2018,11,04,12,50,175.50
2018,11,04,12,51,180.40
2018,11,04,12,52,218.60
2018,11,04,12,53,272.80
2018,11,04,12,54,302.00
2018,11,04,12,55,178.50
2018,11,04,12,56,146.00
2018,11,04,12,57,233.80
2018,11,04,12,58,463.30
2018,11,04,12,59,448.30
2018,11,04,13,00,457.80
2018,11,04,13,01,446.00
2018,11,04,13,02,446.00
2018,11,04,13,03,446.00
2018,11,04,13,04,313.30
2018,11,04,13,05,105.90
2018,11,04,13,06,102.90
2018,11,04,13,07,112.00
2018,11,04,13,08,164.90
2018,11,04,13,09,504.00
2018,11,04,13,10,504.00
2018,11,04,13,11,422.00
2018,11,04,13,12,359.00
2018,11,04,13,13,363.20
2018,11,04,13,14,459.00
2018,11,04,13,15,459.00
2018,11,04,13,16,426.80
2018,11,04,13,17,409.40
2018,11,04,13,18,431.60
2018,11,04,13,19,429.70
2018,11,04,13,20,430.70
2018,11,04,13,21,429.70
2018,11,04,13,22,417.80
2018,11,04,13,23,423.20
2018,11,04,13,24,423.80
2018,11,04,13,25,420.10
2018,11,04,13,26,420.40
2018,11,04,13,27,414.30
2018,11,04,13,28,412.00
2018,11,04,13,29,411.00
2018,11,04,13,30,407.20
2018,11,04,13,31,407.80
2018,11,04,13,32,407.60
2018,11,04,13,33,405.20
2018,11,04,13,34,404.00
2018,11,04,13,35,404.00
2018,11,04,13,36,404.00
2018,11,04,13,37,407.10
2018,11,04,13,38,401.50
2018,11,04,13,39,401.40
2018,11,04,13,40,399.00
2018,11,04,13,41,400.30
2018,11,04,13,42,405.00
2018,11,04,13,43,401.90
2018,11,04,13,44,408.00
2018,11,04,13,45,407.20
2018,11,04,13,46,404.90
2018,11,04,13,47,404.00
2018,11,04,13,48,410.20
2018,11,04,13,49,411.00
2018,11,04,13,50,413.00
2018,11,04,13,51,418.00
2018,11,04,13,52,413.90
2018,11,04,13,53,403.60
2018,11,04,13,54,400.90
2018,11,04,13,55,399.00
2018,11,04,13,56,399.00
2018,11,04,13,57,396.80
2018,11,04,13,58,394.00
2018,11,04,13,59,396.30
2018,11,04,14,00,402.20
2018,11,04,14,01,403.00
2018,11,04,14,02,330.30
2018,11,04,14,03,137.50
2018,11,04,14,04,85.50
2018,11,04,14,05,85.30
2018,11,04,14,06,84.00
2018,11,04,14,07,78.70
2018,11,04,14,08,68.80
2018,11,04,14,09,69.50
2018,11,04,14,10,70.10
2018,11,04,14,11,63.80
2018,11,04,14,12,59.50
2018,11,04,14,13,55.20
2018,11,04,14,14,62.80
2018,11,04,14,15,67.00
2018,11,04,14,16,69.00
2018,11,04,14,17,73.30
2018,11,04,14,18,109.70
2018,11,04,14,19,349.00
2018,11,04,14,20,352.00
2018,11,04,14,21,352.00
2018,11,04,14,22,160.00
2018,11,04,14,23,67.60
2018,11,04,14,24,60.70
2018,11,04,14,25,75.20
2018,11,04,14,26,53.60
2018,11,04,14,27,55.90
2018,11,04,14,28,65.80
2018,11,04,14,29,80.70
2018,11,04,14,30,104.80
2018,11,04,14,31,114.60
2018,11,04,14,32,123.90
2018,11,04,14,33,147.40
2018,11,04,14,34,158.00
2018,11,04,14,35,158.00
2018,11,04,14,36,150.50
2018,11,04,14,37,121.60
2018,11,04,14,38,139.60
2018,11,04,14,39,75.00
2018,11,04,14,40,63.00
2018,11,04,14,41,75.10
2018,11,04,14,42,70.40
2018,11,04,14,43,70.40
2018,11,04,14,44,78.00
2018,11,04,14,45,78.70
2018,11,04,14,46,75.60
2018,11,04,14,47,76.00
2018,11,04,14,48,78.10
2018,11,04,14,49,83.70
2018,11,04,14,50,83.00
2018,11,04,14,51,85.00
2018,11,04,14,52,92.80
2018,11,04,14,53,104.10
2018,11,04,14,54,105.00
2018,11,04,14,55,105.00
2018,11,04,14,56,97.80
2018,11,04,14,57,90.00
2018,11,04,14,58,90.80
2018,11,04,14,59,92.90
2018,11,04,15,00,92.30
2018,11,04,15,01,89.20
2018,11,04,15,02,85.40
2018,11,04,15,03,81.70
2018,11,04,15,04,81.00
2018,11,04,15,05,83.00
2018,11,04,15,06,84.00
2018,11,04,15,07,83.50
2018,11,04,15,08,81.80
2018,11,04,15,09,81.00
2018,11,04,15,10,77.70
2018,11,04,15,11,77.20
2018,11,04,15,12,79.60
2018,11,04,15,13,83.10
2018,11,04,15,14,87.10
2018,11,04,15,15,89.40
2018,11,04,15,16,94.30
2018,11,04,15,17,97.00
2018,11,04,15,18,95.70
2018,11,04,15,19,92.00
2018,11,04,15,20,90.40
2018,11,04,15,21,85.40
2018,11,04,15,22,81.30
2018,11,04,15,23,83.20
2018,11,04,15,24,84.00
2018,11,04,15,25,84.00
2018,11,04,15,26,82.00
2018,11,04,15,27,77.20
2018,11,04,15,28,72.10
2018,11,04,15,29,70.00
2018,11,04,15,30,69.70
2018,11,04,15,31,69.00
2018,11,04,15,32,69.00
2018,11,04,15,33,69.00
2018,11,04,15,34,67.00
2018,11,04,15,35,65.00
2018,11,04,15,36,63.90
2018,11,04,15,37,61.00
2018,11,04,15,38,58.80
2018,11,04,15,39,54.70
2018,11,04,15,40,52.80
2018,11,04,15,41,50.50
2018,11,04,15,42,49.00
2018,11,04,15,43,49.00
2018,11,04,15,44,49.00
2018,11,04,15,45,49.00
2018,11,04,15,46,46.70
2018,11,04,15,47,44.00
2018,11,04,15,48,42.30
2018,11,04,15,49,39.50
2018,11,04,15,50,37.60
2018,11,04,15,51,35.30
2018,11,04,15,52,35.00
2018,11,04,15,53,34.40
2018,11,04,15,54,33.00
2018,11,04,15,55,33.00
2018,11,04,15,56,33.00
2018,11,04,15,57,33.00
2018,11,04,15,58,32.00
2018,11,04,15,59,31.40
2018,11,04,16,00,29.00
2018,11,04,16,01,26.80
2018,11,04,16,02,26.00
2018,11,04,16,03,25.10
2018,11,04,16,04,25.00
2018,11,04,16,05,25.00
2018,11,04,16,06,25.00
2018,11,04,16,07,25.00
2018,11,04,16,08,25.00
2018,11,04,16,09,25.00
2018,11,04,16,10,25.00
2018,11,04,16,11,25.00
2018,11,04,16,12,25.00
2018,11,04,16,13,25.00
2018,11,04,16,14,25.00
2018,11,04,16,15,25.00
2018,11,04,16,16,24.60
2018,11,04,16,17,23.00
2018,11,04,16,18,23.00
2018,11,04,16,19,21.70
2018,11,04,16,20,19.40
2018,11,04,16,21,18.90
2018,11,04,16,22,18.00
2018,11,04,16,23,18.00
2018,11,04,16,24,16.90
2018,11,04,16,25,16.00
2018,11,04,16,26,16.00
2018,11,04,16,27,14.00
2018,11,04,16,28,13.50
2018,11,04,16,29,12.00
2018,11,04,16,30,11.40
2018,11,04,16,31,11.00
2018,11,04,16,32,11.00
2018,11,04,16,33,9.00
2018,11,04,16,34,9.00
2018,11,04,16,35,8.10
2018,11,04,16,36,7.00
2018,11,04,16,37,5.60
2018,11,04,16,38,4.80
2018,11,04,16,39,0.00
2018,11,04,16,40,0.00
2018,11,04,16,41,0.00
2018,11,04,16,42,0.00
2018,11,04,16,43,0.00
2018,11,04,16,44,0.00
2018,11,04,16,45,0.00
2018,11,04,16,46,0.00
2018,11,04,16,47,0.00
2018,11,04,16,48,0.00
2018,11,04,16,49,0.00
2018,11,04,16,50,0.00
2018,11,04,16,51,0.00
2018,11,04,16,52,0.00
2018,11,04,16,53,0.00
2018,11,04,16,54,0.00
2018,11,04,16,55,0.00
2018,11,04,16,56,0.00
2018,11,04,16,57,0.00
2018,11,04,16,58,0.00
2018,11,04,16,59,0.00
2018,11,04,17,00,0.00
2018,11,04,17,01,0.00
2018,11,04,17,02,0.00
2018,11,04,17,03,0.00
2018,11,04,17,04,0.00
2018,11,04,17,05,0.00
2018,11,04,17,06,0.00
2018,11,04,17,07,0.00
2018,11,04,17,08,0.00
2018,11,04,17,09,0.00
2018,11,04,17,10,0.00
2018,11,04,17,11,0.00
2018,11,04,17,12,0.00
2018,11,04,17,13,0.00
2018,11,04,17,14,0.00
2018,11,04,17,15,0.00
2018,11,04,17,16,0.00
2018,11,04,17,17,0.00
2018,11,04,17,18,0.00
2018,11,04,17,19,0.00
2018,11,04,17,20,0.00
2018,11,04,17,21,0.00
2018,11,04,17,22,0.00
2018,11,04,17,23,0.00
2018,11,04,17,24,0.00
2018,11,04,17,25,0.00
2018,11,04,17,26,0.00